Location: Unspecified
(0.0000°N, 0.0000°E)
Time: 19:53:59
(UTC+00:00)

SR - Visible Passes

Search period start: 23 June 2018 00:00
Search period end: 03 July 2018 00:00
Orbit: 574 x 882 km, 66.7° (Epoch: 22 June)

Date Brightness Start Highest point End Pass type
(mag) Time Alt. Az. Time Alt. Az. Time Alt. Az.
23 Jun ? 20:01:37 10° SW 20:05:26 29° WNW 20:09:30 10° N visible
24 Jun ? 19:11:34 10° SSW 19:15:56 88° WNW 19:20:37 10° NNE visible
25 Jun ? 18:22:40 10° S 18:26:31 30° ESE 18:30:35 10° NE visible
25 Jun ? 20:06:55 10° W 20:08:23 11° WNW 20:09:54 10° NW visible
26 Jun ? 19:14:51 10° SW 19:18:48 32° WNW 19:23:00 10° N visible
27 Jun ? 18:24:55 10° SSW 18:29:18 85° ESE 18:34:01 10° NNE visible
28 Jun ? 05:11:17 10° NNE 05:14:33 15° ENE 05:17:42 10° ESE visible
28 Jun ? 19:19:46 10° W 19:21:45 13° WNW 19:23:47 10° NW visible
29 Jun ? 18:28:07 10° SW 18:32:09 35° WNW 18:36:30 10° N visible
30 Jun ? 05:12:22 10° N 05:17:32 34° ENE 05:22:24 10° SE visible
01 Jul ? 04:25:01 10° NE 04:27:55 14° ENE 04:30:45 10° E visible
01 Jul ? 18:32:45 10° W 18:35:06 14° WNW 18:37:33 10° NW visible
02 Jul ? 05:14:43 10° NNW 05:20:27 80° ENE 05:25:47 10° SSE visible
